FW6531 Weather Reports


Display with metric or nautical units.
time (UTC)temp
F
wind
direction
speed
MPH
gust
MPH
rain 1hr
in
rain 24hr
in
rain mn
in
humidity
%
barometer
mb
20260508141039 56 309 4.0 13.0 0.00 0.00 0.00 42 1007.2
20260508140538 56 283 5.0 10.0 0.00 0.00 0.00 40 1007.2
20260508140038 56 232 5.0 11.0 0.00 0.00 0.00 43 1007.3
20260508135536 56 262 5.0 13.0 0.00 0.00 0.00 44 1007.5
20260508135033 55 261 2.0 11.0 0.00 0.00 0.00 46 1007.4
20260508134545 55 323 5.0 11.0 0.00 0.00 0.00 43 1007.5
20260508134031 55 294 4.0 13.0 0.00 0.00 0.00 44 1007.6
20260508133530 55 293 4.0 13.0 0.00 0.00 0.00 44 1007.6
20260508133045 55 296 3.0 11.0 0.00 0.00 0.00 43 1007.6
20260508132527 55 330 3.0 11.0 0.00 0.00 0.00 48 1007.7
20260508132027 54 284 4.0 11.0 0.00 0.00 0.00 47 1007.6
20260508131525 54 333 4.0 10.0 0.00 0.00 0.00 47 1007.6
20260508131024 53 260 4.0 9.0 0.00 0.00 0.00 47 1007.7
20260508130520 53 355 4.0 10.0 0.00 0.00 0.00 47 1007.6
20260508130022 53 309 2.0 10.0 0.00 0.00 0.00 49 1007.6
20260508125519 52 273 5.0 10.0 0.00 0.00 0.00 47 1007.6
20260508125020 52 271 4.0 12.0 0.00 0.00 0.00 47 1007.6
20260508124518 52 255 6.0 12.0 0.00 0.00 0.00 47 1007.6
20260508124017 52 313 3.0 8.0 0.00 0.00 0.00 49 1007.6
20260508123515 52 292 3.0 10.0 0.00 0.00 0.00 49 1007.7
20260508123025 52 264 3.0 10.0 0.00 0.00 0.00 51 1007.7
20260508122512 51 314 4.0 9.0 0.00 0.00 0.00 50 1007.6
20260508122011 51 279 3.0 9.0 0.00 0.00 0.00 50 1007.7
20260508121514 51 260 3.0 8.0 0.00 0.00 0.00 50 1007.7
20260508121010 51 325 3.0 6.0 0.00 0.00 0.00 52 1007.6
20260508120508 51 327 2.0 6.0 0.00 0.00 0.00 52 1007.7
20260508120008 50 311 2.0 6.0 0.00 0.00 0.00 53 1007.7
20260508115507 50 281 1.0 6.0 0.00 0.00 0.00 53 1007.7
20260508115007 49 292 2.0 9.0 0.00 0.00 0.00 52 1007.7
20260508114504 49 265 4.0 9.0 0.00 0.00 0.00 52 1007.8
20260508114004 49 261 4.0 8.0 0.00 0.00 0.00 53 1007.6
20260508113502 48 263 2.0 6.0 0.00 0.00 0.00 55 1007.6
20260508113104 48 331 3.0 6.0 0.00 0.00 0.00 55 1007.6
20260508112602 48 327 2.0 6.0 0.00 0.00 0.00 56 1007.6
20260508112057 47 307 1.0 4.0 0.00 0.00 0.00 57 1007.7
20260508111556 47 286 1.0 6.0 0.00 0.00 0.00 58 1007.6
20260508111055 46 270 0.0 8.0 0.00 0.00 0.00 59 1007.6
20260508110553 46 285 3.0 8.0 0.00 0.00 0.00 58 1007.5
20260508110051 45 298 2.0 6.0 0.00 0.00 0.00 60 1007.6
20260508105555 44 242 1.0 4.0 0.00 0.00 0.00 62 1007.5
20260508105049 44 263 2.0 4.0 0.00 0.00 0.00 61 1007.5
20260508104549 44 261 1.0 4.0 0.00 0.00 0.00 62 1007.5
20260508104051 43 254 2.0 4.0 0.00 0.00 0.00 63 1007.5
20260508103547 43 257 1.0 4.0 0.00 0.00 0.00 65 1007.5
20260508103051 43 254 2.0 4.0 0.00 0.00 0.00 64 1007.3
20260508102546 43 261 1.0 4.0 0.00 0.00 0.00 64 1007.2
20260508102048 44 261 1.0 4.0 0.00 0.00 0.00 63 1007.2
20260508101544 44 261 1.0 6.0 0.00 0.00 0.00 61 1007.1
20260508101043 44 261 1.0 6.0 0.00 0.00 0.00 60 1007.1
20260508100542 44 262 2.0 6.0 0.00 0.00 0.00 60 1007.1
20260508100056 43 258 1.0 3.0 0.00 0.00 0.00 61 1007.1
20260508095541 43 258 1.0 7.0 0.00 0.00 0.00 61 1007.0
20260508095040 43 261 2.0 8.0 0.00 0.00 0.00 60 1006.9
20260508094541 43 258 3.0 8.0 0.00 0.00 0.00 60 1006.8
20260508094042 43 265 1.0 4.0 0.00 0.00 0.00 60 1006.8
20260508093539 43 263 2.0 7.0 0.00 0.00 0.00 59 1006.7
20260508093039 43 262 2.0 7.0 0.00 0.00 0.00 60 1006.6
20260508092537 43 265 2.0 6.0 0.00 0.00 0.00 60 1006.6
20260508092041 43 263 2.0 6.0 0.00 0.00 0.00 59 1006.5
20260508091537 43 261 2.0 6.0 0.00 0.00 0.00 59 1006.4
20260508091036 43 264 2.0 6.0 0.00 0.00 0.00 59 1006.3
20260508090535 43 259 2.0 6.0 0.00 0.00 0.00 59 1006.2
20260508090049 43 264 2.0 4.0 0.00 0.01 0.00 58 1006.3
20260508085534 43 262 1.0 6.0 0.00 0.01 0.00 57 1006.2
20260508085032 44 261 2.0 6.0 0.00 0.01 0.00 57 1006.1
20260508084537 44 281 1.0 3.0 0.00 0.01 0.00 57 1006.1
20260508084032 44 275 1.0 3.0 0.00 0.01 0.00 57 1006.0
20260508083535 44 263 1.0 6.0 0.00 0.01 0.00 56 1006.1
20260508083032 44 262 2.0 6.0 0.00 0.01 0.00 56 1006.1
20260508082535 44 261 2.0 4.0 0.00 0.01 0.00 56 1006.0
20260508082033 44 259 2.0 6.0 0.00 0.01 0.00 56 1006.0
20260508081535 44 261 2.0 6.0 0.00 0.01 0.00 56 1005.9
20260508081031 44 263 2.0 4.0 0.00 0.01 0.00 56 1005.9
20260508080532 44 269 2.0 5.0 0.00 0.01 0.00 56 1005.9
20260508080037 44 271 1.0 5.0 0.00 0.01 0.00 56 1005.9
20260508075531 44 298 1.0 4.0 0.00 0.01 0.00 56 1005.9
20260508075030 44 311 1.0 3.0 0.00 0.01 0.00 56 1005.9
20260508074529 44 311 1.0 4.0 0.00 0.01 0.00 56 1005.7
20260508074029 44 301 1.0 4.0 0.00 0.01 0.00 56 1005.8
20260508073529 44 294 1.0 4.0 0.00 0.01 0.00 56 1005.7
20260508073035 44 272 2.0 4.0 0.00 0.01 0.00 55 1005.7
20260508072529 44 292 2.0 5.0 0.00 0.01 0.00 55 1005.7
20260508072032 44 295 2.0 5.0 0.00 0.01 0.00 56 1005.7
20260508071529 44 315 2.0 6.0 0.00 0.01 0.00 56 1005.7
20260508071028 44 323 2.0 6.0 0.00 0.01 0.00 56 1005.7
20260508070528 44 319 2.0 5.0 0.00 0.01 0.00 56 1005.7
20260508070027 44 323 2.0 7.0 0.00 0.01 0.00 56 1005.7
20260508065527 45 315 2.0 7.0 0.00 0.01 0.00 55 1005.6
20260508065030 45 355 1.0 8.0 0.00 0.01 0.00 55 1005.6
20260508064530 45 327 1.0 9.0 0.00 0.01 0.00 56 1005.6
20260508064027 45 322 4.0 9.0 0.00 0.01 0.00 55 1005.7
20260508063525 45 333 3.0 6.0 0.00 0.01 0.00 54 1005.9
20260508063027 45 304 2.0 7.0 0.00 0.01 0.00 54 1005.9
20260508062524 45 332 2.0 10.0 0.00 0.01 0.00 54 1005.9
20260508062024 46 329 5.0 12.0 0.00 0.01 0.00 53 1006.0
20260508061532 46 305 5.0 12.0 0.00 0.01 0.00 53 1005.9
20260508061023 46 297 5.0 12.0 0.00 0.01 0.00 53 1005.9
20260508060523 45 308 5.0 11.0 0.00 0.01 0.00 53 1005.9
20260508060022 45 336 6.0 11.0 0.00 0.02 0.00 53 1005.9
20260508055521 45 341 4.0 10.0 0.00 0.02 0.00 54 1006.1
20260508055020 45 355 5.0 10.0 0.00 0.02 0.00 54 1006.1
20260508054519 45 351 5.0 10.0 0.00 0.02 0.00 54 1006.1
20260508054019 45 306 2.0 5.0 0.00 0.02 0.00 55 1006.2
20260508053517 45 307 2.0 8.0 0.00 0.02 0.00 55 1006.2
20260508053020 45 327 2.0 9.0 0.00 0.02 0.00 54 1006.2
20260508052516 44 325 4.0 9.0 0.00 0.02 0.00 54 1006.3
20260508052017 44 279 2.0 4.0 0.00 0.02 0.00 55 1006.3
20260508051514 45 286 2.0 5.0 0.00 0.02 0.00 56 1006.5
20260508050512 45 308 0.0 4.0 0.00 0.02 0.00 55 1006.7
20260508050011 45 308 2.0 6.0 0.00 0.10 0.00 55 1006.6
20260508045512 45 309 3.0 6.0 0.00 0.10 0.00 54 1006.7
20260508045010 45 327 2.0 5.0 0.00 0.10 0.00 54 1006.7
20260508044510 45 318 3.0 5.0 0.00 0.10 0.00 54 1006.6
20260508044008 45 313 1.0 4.0 0.00 0.10 0.00 53 1006.6
20260508043507 46 311 1.0 3.0 0.00 0.10 0.00 53 1006.7
20260508043007 46 308 0.0 3.0 0.00 0.10 0.00 52 1006.8
20260508042506 46 308 1.0 3.0 0.00 0.10 0.00 52 1006.7
20260508042006 46 306 0.0 4.0 0.00 0.10 0.00 52 1006.7
20260508041505 46 306 1.0 4.0 0.00 0.10 0.00 52 1006.7
20260508041003 47 297 1.0 5.0 0.00 0.10 0.00 52 1006.7
20260508040501 47 321 3.0 6.0 0.00 0.10 0.00 50 1006.7
20260508040001 47 298 1.0 6.0 0.00 0.11 0.10 51 1006.7
20260508035501 47 319 1.0 5.0 0.00 0.11 0.10 51 1006.7
20260508035001 47 312 1.0 5.0 0.00 0.11 0.10 51 1006.7
20260508034502 48 313 1.0 5.0 0.00 0.11 0.10 51 1006.7
20260508034001 48 309 1.0 3.0 0.00 0.11 0.10 51 1006.8
20260508033600 48 309 1.0 4.0 0.00 0.11 0.10 50 1006.8
20260508033104 48 328 2.0 4.0 0.00 0.11 0.10 49 1006.9
20260508032603 48 319 0.0 5.0 0.00 0.11 0.10 48 1006.8
20260508032103 48 316 2.0 5.0 0.00 0.11 0.10 48 1006.8
20260508031601 49 311 3.0 5.0 0.00 0.11 0.10 49 1006.6
20260508031101 49 329 1.0 4.0 0.00 0.11 0.10 49 1006.8
20260508030600 49 309 2.0 8.0 0.00 0.11 0.10 50 1006.9
20260508030104 49 308 3.0 8.0 0.00 0.12 0.10 48 1006.9
20260508025601 49 316 2.0 4.0 0.00 0.12 0.10 49 1006.8
20260508025059 50 306 1.0 4.0 0.00 0.12 0.10 47 1006.8
20260508024619 50 329 2.0 5.0 0.00 0.12 0.10 47 1006.8
20260508024058 50 314 2.0 8.0 0.00 0.12 0.10 47 1006.7
20260508023557 50 309 3.0 9.0 0.00 0.12 0.10 47 1006.5
20260508023057 50 324 3.0 8.0 0.00 0.12 0.10 47 1006.5
20260508022601 51 327 3.0 8.0 0.00 0.12 0.10 46 1006.4
20260508022056 51 309 4.0 8.0 0.00 0.12 0.10 46 1006.4
20260508021605 51 292 3.0 10.0 0.00 0.12 0.10 47 1006.4
20260508021055 51 322 4.0 15.0 0.00 0.12 0.10 46 1006.5
20260508020601 51 348 4.0 15.0 0.00 0.12 0.10 45 1006.4
20260508020104 51 24 5.0 14.0 0.00 0.14 0.10 45 1006.3
20260508015555 52 15 4.0 10.0 0.00 0.14 0.10 47 1006.3
20260508015054 52 332 3.0 11.0 0.00 0.14 0.10 46 1006.2
20260508014557 52 329 5.0 11.0 0.00 0.14 0.10 46 1006.1
20260508014054 52 12 6.0 12.0 0.00 0.14 0.10 45 1006.0
20260508013555 52 327 5.0 12.0 0.00 0.14 0.10 45 1006.1
20260508013054 53 336 4.0 10.0 0.00 0.14 0.10 44 1006.0
20260508012623 53 310 4.0 10.0 0.00 0.14 0.10 45 1005.9
20260508012053 53 344 3.0 11.0 0.00 0.14 0.10 46 1005.8
20260508011606 53 11 4.0 12.0 0.00 0.14 0.10 43 1005.8
20260508011052 53 313 4.0 12.0 0.00 0.14 0.10 43 1005.7
20260508010552 53 309 5.0 14.0 0.00 0.14 0.10 44 1005.7
20260508010055 54 308 6.0 13.0 0.00 0.15 0.10 44 1005.6
20260508005555 54 328 4.0 10.0 0.00 0.15 0.10 44 1005.5
20260508005051 54 333 4.0 10.0 0.00 0.15 0.10 45 1005.5
20260508004556 54 345 3.0 12.0 0.00 0.15 0.10 45 1005.3
20260508004051 55 342 5.0 12.0 0.00 0.15 0.10 43 1005.2
20260508003551 55 360 5.0 12.0 0.00 0.15 0.10 43 1005.0
20260508003050 55 349 5.0 12.0 0.00 0.15 0.10 44 1004.9
20260508002551 55 306 2.0 9.0 0.00 0.15 0.10 43 1004.8
20260508002050 56 340 3.0 9.0 0.00 0.15 0.10 41 1004.6
20260508001551 56 308 4.0 12.0 0.00 0.15 0.10 41 1004.6
20260508001050 56 313 4.0 12.0 0.00 0.15 0.10 39 1004.5
20260508000550 56 319 2.0 9.0 0.00 0.15 0.10 44 1004.6
20260508000049 57 331 2.0 8.0 0.00 0.15 0.10 41 1004.4
20260507235549 57 340 2.0 8.0 0.00 0.15 0.10 41 1004.4
20260507235048 57 323 2.0 6.0 0.00 0.15 0.10 39 1004.4
20260507234548 57 315 1.0 5.0 0.00 0.15 0.10 38 1004.3
20260507234048 57 272 1.0 4.0 0.00 0.15 0.10 37 1004.4
20260507233547 57 269 2.0 6.0 0.00 0.15 0.10 36 1004.3
20260507233048 58 271 1.0 6.0 0.00 0.15 0.10 36 1004.2
20260507232548 58 278 2.0 7.0 0.00 0.15 0.10 35 1004.0
20260507232051 58 267 2.0 7.0 0.00 0.15 0.10 35 1004.1
20260507231547 58 266 3.0 6.0 0.00 0.15 0.10 35 1004.0
20260507231047 58 261 1.0 8.0 0.00 0.15 0.10 35 1003.8
20260507230550 58 259 3.0 8.0 0.00 0.15 0.10 34 1003.7
20260507230104 58 278 1.0 7.0 0.00 0.15 0.10 34 1003.7
20260507225546 59 298 2.0 10.0 0.00 0.15 0.10 33 1003.6
20260507225046 59 262 4.0 10.0 0.00 0.15 0.10 32 1003.5
20260507224551 59 277 3.0 11.0 0.00 0.15 0.10 32 1003.5
20260507224045 59 302 4.0 11.0 0.00 0.15 0.10 32 1003.5
20260507223545 60 279 4.0 12.0 0.00 0.15 0.10 31 1003.5
20260507223045 60 304 6.0 12.0 0.00 0.15 0.10 32 1003.5
20260507222545 60 257 5.0 10.0 0.00 0.15 0.10 33 1003.3
20260507222044 60 293 3.0 11.0 0.00 0.15 0.10 32 1003.4
20260507221547 60 46 2.0 14.0 0.00 0.15 0.10 33 1003.3
20260507221044 60 310 5.0 14.0 0.00 0.15 0.10 34 1003.3
20260507220544 60 320 3.0 10.0 0.00 0.15 0.10 33 1003.2
20260507220050 60 322 4.0 10.0 0.00 0.21 0.10 33 1003.3
20260507215544 60 309 4.0 10.0 0.00 0.21 0.10 34 1003.3
20260507215043 61 322 2.0 9.0 0.00 0.21 0.10 33 1003.2
20260507214544 61 277 4.0 9.0 0.00 0.21 0.10 33 1003.2
20260507214043 61 327 4.0 12.0 0.00 0.21 0.10 34 1003.3
20260507213543 61 257 4.0 12.0 0.00 0.21 0.10 34 1003.2
20260507213044 61 317 3.0 10.0 0.00 0.21 0.10 35 1003.2
20260507212542 61 262 4.0 17.0 0.00 0.21 0.10 33 1003.2
20260507212042 61 323 7.0 17.0 0.00 0.21 0.10 33 1003.1
20260507211544 61 295 6.0 17.0 0.00 0.21 0.10 33 1003.2
20260507211041 61 284 3.0 13.0 0.00 0.21 0.10 34 1003.1
20260507210543 61 311 4.0 11.0 0.00 0.21 0.10 34 1003.1
20260507210048 61 286 3.0 11.0 0.00 0.25 0.10 33 1003.0
20260507205541 61 285 4.0 10.0 0.00 0.25 0.10 35 1003.1
20260507205041 61 292 5.0 10.0 0.00 0.25 0.10 34 1003.1
20260507204540 61 264 4.0 10.0 0.00 0.25 0.10 34 1003.0
20260507204042 61 307 4.0 11.0 0.00 0.25 0.10 34 1003.0
20260507203539 61 247 5.0 14.0 0.00 0.25 0.10 34 1003.0
20260507203140 61 328 7.0 14.0 0.00 0.25 0.10 34 1003.0
20260507202542 61 279 3.0 13.0 0.00 0.25 0.10 34 1003.0
20260507202043 61 332 5.0 12.0 0.00 0.25 0.10 34 1003.0
20260507201538 61 355 4.0 13.0 0.00 0.25 0.10 34 1003.0
20260507201039 61 297 6.0 13.0 0.00 0.25 0.10 34 1003.0
20260507200540 61 311 4.0 13.0 0.00 0.25 0.10 36 1003.2
20260507200037 61 293 4.0 13.0 0.00 0.31 0.10 34 1003.0
20260507195542 61 327 5.0 14.0 0.00 0.31 0.10 34 1003.1
20260507195037 61 266 4.0 14.0 0.00 0.31 0.10 35 1003.0
20260507194537 61 300 5.0 13.0 0.00 0.31 0.10 37 1003.0
20260507194035 61 278 6.0 14.0 0.00 0.31 0.10 35 1002.9
20260507193536 61 279 6.0 14.0 0.00 0.31 0.10 33 1003.2
20260507193039 61 252 6.0 15.0 0.00 0.31 0.10 34 1003.3
20260507192535 61 273 6.0 14.0 0.00 0.31 0.10 35 1003.2
20260507192035 61 263 6.0 14.0 0.00 0.31 0.10 35 1003.3
20260507191538 61 247 5.0 19.0 0.00 0.31 0.10 38 1003.4
20260507191033 61 48 8.0 19.0 0.00 0.31 0.10 39 1003.3
20260507190534 61 275 5.0 13.0 0.00 0.31 0.10 42 1003.2
20260507190033 61 262 5.0 13.0 0.00 0.31 0.10 41 1003.3
20260507185532 61 246 4.0 13.0 0.00 0.31 0.10 43 1003.2
20260507185031 61 327 4.0 14.0 0.00 0.31 0.10 45 1003.3
20260507184632 61 261 5.0 16.0 0.00 0.31 0.10 44 1003.2
20260507184032 61 302 8.0 16.0 0.00 0.31 0.10 46 1003.2
20260507183531 61 288 6.0 12.0 0.00 0.31 0.10 44 1003.3
20260507183034 61 254 3.0 11.0 0.00 0.31 0.10 46 1003.3
20260507182531 61 270 5.0 10.0 0.00 0.31 0.10 46 1003.3
20260507182031 60 211 5.0 11.0 0.00 0.31 0.10 46 1003.3
20260507181529 59 223 5.0 11.0 0.00 0.31 0.10 47 1003.2
20260507181028 58 271 5.0 11.0 0.00 0.31 0.10 52 1003.4
20260507180528 58 292 2.0 7.0 0.00 0.31 0.10 57 1003.5
20260507180026 57 261 3.0 7.0 0.00 0.31 0.10 58 1003.4
20260507175529 57 227 2.0 8.0 0.00 0.31 0.10 61 1003.5
20260507175026 56 230 1.0 5.0 0.00 0.31 0.10 68 1003.6
20260507174535 56 137 1.0 5.0 0.00 0.31 0.10 68 1003.5
20260507174029 56 150 1.0 8.0 0.00 0.31 0.10 67 1003.5
20260507173626 56 157 3.0 8.0 0.00 0.31 0.10 66 1003.6
20260507173048 56 192 3.0 8.0 0.00 0.31 0.10 66 1003.8
20260507172526 56 153 1.0 10.0 0.00 0.31 0.10 67 1003.7
20260507172026 56 148 3.0 8.0 0.00 0.31 0.10 69 1003.8
20260507171527 55 172 5.0 8.0 0.00 0.31 0.10 66 1004.1
20260507171025 56 166 3.0 9.0 0.00 0.31 0.10 65 1004.2
20260507170525 56 150 4.0 9.0 0.00 0.31 0.10 66 1004.2
20260507170025 56 90 4.0 13.0 0.00 0.31 0.10 65 1004.2
20260507165523 56 120 3.0 13.0 0.00 0.31 0.10 64 1004.3
20260507165023 57 240 5.0 18.0 0.00 0.31 0.10 63 1004.2
20260507164523 57 174 5.0 18.0 0.00 0.31 0.10 64 1004.2
20260507164024 57 219 6.0 11.0 0.00 0.31 0.10 66 1004.3
20260507163527 57 152 6.0 11.0 0.00 0.31 0.10 67 1004.3
20260507163026 56 161 2.0 9.0 0.00 0.31 0.10 69 1004.4
20260507162528 56 163 5.0 11.0 0.00 0.31 0.10 68 1004.5
20260507162023 57 132 4.0 11.0 0.00 0.31 0.10 68 1004.5
20260507161523 57 175 4.0 8.0 0.00 0.31 0.10 69 1004.5
20260507161023 57 110 2.0 7.0 0.00 0.31 0.10 68 1004.5
20260507160523 57 159 3.0 9.0 0.00 0.31 0.10 66 1004.7
20260507160025 59 150 3.0 9.0 0.00 0.31 0.10 65 1004.9
20260507155525 59 192 2.0 9.0 0.00 0.31 0.10 66 1005.0
20260507155022 60 71 2.0 11.0 0.00 0.31 0.10 62 1005.0
20260507154525 61 157 5.0 11.0 0.00 0.31 0.10 64 1005.1
20260507154021 61 198 5.0 11.0 0.00 0.31 0.10 62 1005.0
20260507153522 62 167 5.0 11.0 0.00 0.31 0.10 60 1005.0
20260507153019 62 231 3.0 8.0 0.00 0.31 0.10 58 1005.1
20260507152518 62 265 2.0 6.0 0.00 0.31 0.10 55 1005.0
20260507152026 61 57 1.0 5.0 0.00 0.31 0.10 54 1005.0
20260507151516 61 297 2.0 8.0 0.00 0.31 0.10 56 1005.1
20260507151014 61 12 1.0 8.0 0.00 0.31 0.10 54 1005.1
20260507150518 60 248 1.0 6.0 0.00 0.31 0.10 56 1005.2
20260507150016 60 242 2.0 5.0 0.00 0.31 0.10 54 1005.1
20260507145511 60 293 2.0 9.0 0.00 0.31 0.10 57 1005.1
20260507145016 59 263 2.0 9.0 0.00 0.31 0.10 55 1005.3
20260507144508 59 245 2.0 5.0 0.00 0.31 0.10 56 1005.1
20260507144007 59 267 2.0 7.0 0.00 0.31 0.10 57 1005.2
20260507143510 59 254 2.0 7.0 0.00 0.31 0.10 55 1005.3
20260507143005 59 339 3.0 6.0 0.00 0.31 0.10 57 1005.4
20260507142503 59 194 3.0 8.0 0.00 0.31 0.10 61 1005.5
20260507142001 58 262 3.0 8.0 0.00 0.31 0.10 60 1005.5
20260507141500 58 337 1.0 9.0 0.00 0.31 0.10 62 1005.6